F4MNZ-13 Weather Reports


time (UTC)temp
C
wind
direction
speed
KPH
gust
KPH
rain 1hr
cm
rain 24hr
cm
rain mn
cm
humidity
%
barometer
mb
20260510041000 8 202 0.0 3.2 0.00 0.00 0.00 94 1014.9
20260510040459 8 202 1.6 3.2 0.00 0.00 0.00 94 1015.0
20260510040000 8 202 0.0 4.8 0.00 0.00 0.00 93 1015.1
20260510035459 8 202 1.6 4.8 0.00 0.00 0.00 94 1015.0
20260510034958 8 202 3.2 4.8 0.00 0.00 0.00 93 1015.0
20260510034459 9 194 0.0 0.0 0.00 0.00 0.00 94 1015.1
20260510033958 9 194 0.0 1.6 0.00 0.00 0.00 94 1015.2
20260510032959 9 194 0.0 3.2 0.00 0.00 0.00 94 1015.2
20260510032459 9 194 0.0 3.2 0.00 0.00 0.00 93 1015.1
20260510032000 9 194 1.6 3.2 0.00 0.00 0.00 93 1015.2
20260510031501 9 194 0.0 3.2 0.00 0.00 0.00 93 1015.1
20260510030957 9 194 0.0 3.2 0.00 0.00 0.00 93 1015.3
20260510030501 9 194 0.0 3.2 0.00 0.00 0.00 93 1015.2
20260510025959 10 194 0.0 3.2 0.00 0.00 0.00 93 1015.3
20260510025456 10 175 1.6 3.2 0.00 0.00 0.00 94 1015.3
20260510024956 10 175 1.6 3.2 0.00 0.00 0.00 93 1015.3
20260510024459 10 174 0.0 3.2 0.00 0.00 0.00 93 1015.4
20260510023457 10 174 0.0 1.6 0.00 0.00 0.00 93 1015.4
20260510022957 10 188 1.6 1.6 0.00 0.00 0.00 93 1015.4
20260510022458 10 188 1.6 3.2 0.00 0.00 0.00 93 1015.4
20260510021957 10 188 0.0 3.2 0.00 0.00 0.00 93 1015.4
20260510021456 10 153 1.6 3.2 0.00 0.00 0.00 93 1015.5
20260510020957 10 153 0.0 3.2 0.00 0.00 0.00 93 1015.4
20260510020456 10 153 0.0 3.2 0.00 0.00 0.00 93 1015.5
20260510020000 10 153 0.0 3.2 0.00 0.00 0.00 93 1015.6
20260510015457 10 153 1.6 3.2 0.00 0.00 0.00 92 1015.6
20260510015001 10 231 0.0 3.2 0.00 0.00 0.00 92 1015.7
20260510014457 10 231 0.0 6.4 0.00 0.00 0.00 92 1015.7
20260510014002 10 230 0.0 6.4 0.00 0.00 0.00 92 1015.6
20260510013459 11 225 3.2 6.4 0.00 0.00 0.00 93 1015.6
20260510012959 11 248 1.6 3.2 0.00 0.00 0.00 91 1015.7
20260510012457 11 162 1.6 3.2 0.00 0.00 0.00 92 1015.7
20260510011957 11 144 3.2 3.2 0.00 0.00 0.00 92 1015.7
20260510011458 11 239 0.0 3.2 0.00 0.00 0.00 91 1015.7
20260510010959 11 202 0.0 1.6 0.00 0.00 0.00 91 1015.4
20260510010459 11 202 0.0 1.6 0.00 0.00 0.00 91 1015.4
20260510005959 11 202 0.0 1.6 0.00 0.00 0.00 91 1015.5
20260510005459 11 94 1.6 3.2 0.00 0.00 0.00 91 1015.6
20260510004958 11 94 0.0 3.2 0.00 0.00 0.00 91 1015.5
20260510004458 11 355 0.0 3.2 0.00 0.00 0.00 90 1015.6
20260510003958 11 355 0.0 3.2 0.00 0.00 0.00 90 1015.7
20260510003501 11 355 1.6 3.2 0.00 0.00 0.00 90 1015.8
20260510002458 12 196 0.0 3.2 0.00 0.00 0.00 90 1015.8
20260510001459 12 198 0.0 3.2 0.00 0.00 0.00 88 1015.9
20260510000458 12 246 0.0 3.2 0.00 0.00 0.00 87 1016.0
20260509235958 12 302 0.0 3.2 0.00 0.00 0.00 87 1016.0
20260509235500 12 264 1.6 4.8 0.00 0.00 0.00 85 1016.0
20260509234957 12 264 1.6 8.0 0.00 0.00 0.00 87 1016.0
20260509234457 13 254 0.0 8.0 0.00 0.00 0.00 87 1016.2
20260509233959 12 222 4.8 8.0 0.00 0.00 0.00 86 1016.1
20260509233457 13 226 1.6 4.8 0.00 0.00 0.00 1016.1
20260509232958 -17 0.0 0.0 0.00 0.00 0.00 1016.1
20260509232457 -17 0.0 0.0 0.00 0.00 0.00 1016.1
20260509231958 -17 0.0 0.0 0.00 0.00 0.00 1016.2
20260509231456 -17 0.0 0.0 0.00 0.00 0.00 1016.2
20260509230958 -17 0.0 0.0 0.00 0.00 0.00 1016.2
20260509230456 -17 0.0 0.0 0.00 0.00 0.00 1016.2
20260509225959 -17 0.0 0.0 0.00 0.00 0.00 1016.2
20260509225459 12 240 0.0 1.6 0.00 0.00 0.00 85 1016.2
20260509224500 12 241 0.0 1.6 0.00 0.00 0.00 85 1016.4
20260509224002 12 244 0.0 1.6 0.00 0.00 0.00 85 1016.3
20260509223500 12 244 0.0 3.2 0.00 0.00 0.00 85 1016.2
20260509223000 12 161 0.0 3.2 0.00 0.00 0.00 85 1016.2
20260509222459 12 159 0.0 6.4 0.00 0.00 0.00 85 1016.1
20260509221959 12 159 1.6 6.4 0.00 0.00 0.00 85 1016.1
20260509221500 12 208 1.6 6.4 0.00 0.00 0.00 85 1016.0
20260509220001 12 201 0.0 4.8 0.00 0.00 0.00 85 1015.7
20260509214959 -17 0.0 0.0 0.00 0.00 0.00 1015.5
20260509214458 -17 0.0 0.0 0.00 0.00 0.00 1015.5
20260509214000 -17 0.0 0.0 0.00 0.00 0.00 1015.5
20260509213459 -17 0.0 0.0 0.00 0.00 0.00 1015.5
20260509212000 -17 0.0 0.0 0.00 0.00 0.00 1015.5
20260509211458 -17 0.0 0.0 0.00 0.00 0.00 1015.4
20260509211000 -17 0.0 0.0 0.00 0.00 0.00 1015.4
20260509210001 -17 0.0 0.0 0.00 0.00 0.00 1015.4
20260509205503 -17 0.0 0.0 0.00 0.00 0.00 1015.4
20260509205000 -17 0.0 0.0 0.00 0.00 0.00 1015.5
20260509204500 -17 0.0 0.0 0.00 0.00 0.00 1015.5
20260509204002 -17 0.0 0.0 0.00 0.00 0.00 1015.4
20260509203500 -17 0.0 0.0 0.00 0.00 0.00 1015.3
20260509203000 -17 0.0 0.0 0.00 0.00 0.00 1015.3
20260509202500 -17 0.0 0.0 0.00 0.00 0.00 1015.3
20260509202000 -17 0.0 0.0 0.00 0.00 0.00 1015.3
20260509201500 -17 0.0 0.0 0.00 0.00 0.00 1015.2
20260509201001 -17 0.0 0.0 0.00 0.00 0.00 1015.2
20260509200500 -17 0.0 0.0 0.00 0.00 0.00 1015.2
20260509200000 -17 0.0 0.0 0.00 0.00 0.00 1015.1
20260509195459 -17 0.0 0.0 0.00 0.00 0.00 1014.9
20260509195000 -17 0.0 0.0 0.00 0.00 0.00 1014.9
20260509194501 -17 0.0 0.0 0.00 0.00 0.00 1014.8
20260509193959 -17 0.0 0.0 0.00 0.00 0.00 1014.7
20260509193459 -17 0.0 0.0 0.00 0.00 0.00 1014.6
20260509192959 -17 0.0 0.0 0.00 0.00 0.00 1014.6
20260509192459 -17 0.0 0.0 0.00 0.00 0.00 1014.4
20260509191959 -17 0.0 0.0 0.00 0.00 0.00 1014.4
20260509190959 -17 0.0 0.0 0.00 0.00 0.00 1014.3
20260509185959 -17 0.0 0.0 0.00 0.00 0.00 1014.3
20260509185459 -17 0.0 0.0 0.00 0.00 0.00 1014.2
20260509183959 -17 0.0 0.0 0.00 0.00 0.00 1014.0
20260509183459 -17 0.0 0.0 0.00 0.00 0.00 1013.9
20260509182500 -17 0.0 0.0 0.00 0.00 0.00 1013.8
20260509181959 -17 0.0 0.0 0.00 0.00 0.00 1013.7
20260509181500 -17 0.0 0.0 0.00 0.00 0.00 1013.6
20260509180459 -17 0.0 0.0 0.00 0.00 0.00 1013.6
20260509180000 -17 0.0 0.0 0.00 0.00 0.00 1013.5
20260509175500 16 30 0.0 3.2 0.00 0.00 0.00 76 1013.6
20260509175000 16 30 0.0 3.2 0.00 0.00 0.00 76 1013.7
20260509174459 16 30 1.6 3.2 0.00 0.00 0.00 74 1013.7
20260509173959 16 30 0.0 3.2 0.00 0.00 0.00 74 1013.6
20260509173500 16 30 0.0 3.2 0.00 0.00 0.00 74 1013.7
20260509172959 16 30 0.0 1.6 0.00 0.00 0.00 74 1013.7
20260509172459 16 30 0.0 3.2 0.00 0.00 0.00 74 1013.7
20260509171959 17 30 0.0 4.8 0.00 0.00 0.00 74 1013.6
20260509171459 17 48 3.2 4.8 0.00 0.00 0.00 73 1013.6
20260509170459 17 43 1.6 6.4 0.00 0.00 0.00 72 1013.8
20260509170001 17 5 1.6 8.0 0.00 0.00 0.00 72 1014.0
20260509165459 17 285 6.4 6.4 0.00 0.00 0.00 73 1014.0
20260509164959 17 292 0.0 6.4 0.00 0.00 0.00 73 1014.0
20260509164459 17 241 3.2 11.3 0.00 0.00 0.00 72 1014.0
20260509163959 17 289 6.4 11.3 0.00 0.00 0.00 72 1013.9
20260509163459 17 283 6.4 12.9 0.00 0.00 0.00 71 1014.0
20260509162459 17 298 4.8 16.1 0.00 0.00 0.00 71 1014.0
20260509161959 17 274 11.3 16.1 0.00 0.00 0.00 70 1014.0
20260509161500 17 277 6.4 14.5 0.00 0.00 0.00 70 1014.0
20260509160959 18 299 4.8 11.3 0.00 0.00 0.00 67 1014.0
20260509160459 18 314 3.2 8.0 0.00 0.00 0.00 67 1014.0
20260509155503 18 254 3.2 6.4 0.00 0.00 0.00 66 1013.9
20260509155001 18 220 3.2 6.4 0.00 0.00 0.00 66 1013.9
20260509154458 18 226 3.2 4.8 0.00 0.00 0.00 67 1013.8
20260509153959 18 252 4.8 4.8 0.00 0.00 0.00 68 1013.7
20260509153000 17 224 3.2 4.8 0.00 0.00 0.00 71 1013.8
20260509152501 17 224 0.0 4.8 0.00 0.00 0.00 73 1013.8
20260509152001 17 221 1.6 4.8 0.00 0.00 0.00 71 1013.9
20260509151459 17 263 0.0 6.4 0.00 0.00 0.00 70 1014.1
20260509151000 17 269 3.2 6.4 0.00 0.00 0.00 70 1014.1
20260509150459 17 300 3.2 12.9 0.00 0.00 0.00 70 1014.2
20260509145959 17 303 6.4 12.9 0.00 0.00 0.00 69 1014.2
20260509145459 17 262 6.4 12.9 0.00 0.00 0.00 68 1014.2
20260509145002 17 278 3.2 12.9 0.00 0.00 0.00 68 1014.2
20260509144500 17 283 11.3 11.3 0.00 0.00 0.00 69 1014.2
20260509144001 17 314 6.4 8.0 0.00 0.00 0.00 71 1014.4
20260509143001 17 286 11.3 11.3 0.00 0.00 0.00 70 1014.5
20260509142500 17 305 3.2 8.0 0.00 0.00 0.00 68 1014.5
20260509142000 17 289 8.0 9.7 0.00 0.00 0.00 68 1014.6
20260509141459 17 278 6.4 9.7 0.00 0.00 0.00 68 1014.6
20260509140502 17 280 1.6 9.7 0.00 0.00 0.00 66 1014.8
20260509135959 17 259 1.6 9.7 0.00 0.00 0.00 66 1014.9
20260509135457 17 273 1.6 9.7 0.00 0.00 0.00 66 1014.9
20260509134958 17 290 1.6 9.7 0.00 0.00 0.00 64 1014.8
20260509134501 17 204 4.8 6.4 0.00 0.00 0.00 65 1014.9
20260509133958 17 224 3.2 9.7 0.00 0.00 0.00 64 1014.9
20260509133459 17 275 4.8 6.4 0.00 0.00 0.00 65 1014.9
20260509132958 18 279 3.2 6.4 0.00 0.00 0.00 62 1014.9
20260509132458 18 300 3.2 11.3 0.00 0.00 0.00 60 1015.0
20260509131958 18 246 3.2 11.3 0.00 0.00 0.00 60 1015.0
20260509131459 18 282 9.7 11.3 0.00 0.00 0.00 59 1014.9
20260509131000 18 267 4.8 12.9 0.00 0.00 0.00 56 1015.2
20260509130502 18 241 6.4 12.9 0.00 0.00 0.00 56 1015.2
20260509130001 18 261 4.8 11.3 0.00 0.00 0.00 56 1015.2
20260509125458 18 305 8.0 12.9 0.00 0.00 0.00 55 1015.4
20260509124500 18 238 1.6 11.3 0.00 0.00 0.00 62 1015.4
20260509123959 18 296 4.8 11.3 0.00 0.00 0.00 58 1015.5
20260509122459 18 298 6.4 8.0 0.00 0.00 0.00 56 1015.2
20260509121959 18 274 3.2 12.9 0.00 0.00 0.00 55 1015.2
20260509115958 19 58 1.6 9.7 0.00 0.00 0.00 54 1015.2
20260509115459 19 24 3.2 6.4 0.00 0.00 0.00 53 1015.2
20260509115001 19 90 1.6 6.4 0.00 0.00 0.00 53 1015.2
20260509113959 19 55 4.8 9.7 0.00 0.00 0.00 52 1015.2
20260509113458 19 71 1.6 9.7 0.00 0.00 0.00 48 1015.3
20260509112958 19 355 4.8 9.7 0.00 0.00 0.00 56 1015.5
20260509112459 19 200 0.0 9.7 0.00 0.00 0.00 52 1015.6
20260509112000 19 289 4.8 9.7 0.00 0.00 0.00 53 1015.8
20260509111459 19 9 3.2 8.0 0.00 0.00 0.00 48 1015.8
20260509111001 18 25 4.8 8.0 0.00 0.00 0.00 49 1015.8
20260509105000 18 290 6.4 12.9 0.00 0.00 0.00 45 1016.2
20260509104500 18 238 1.6 12.9 0.00 0.00 0.00 54 1016.2
20260509103959 18 254 8.0 8.0 0.00 0.00 0.00 48 1016.3
20260509103458 18 274 1.6 11.3 0.00 0.00 0.00 49 1016.1
20260509102459 18 315 3.2 8.0 0.00 0.00 0.00 52 1016.1
20260509101959 18 318 1.6 8.0 0.00 0.00 0.00 52 1016.1
20260509101459 18 24 1.6 6.4 0.00 0.00 0.00 50 1016.1
20260509100959 18 31 6.4 6.4 0.00 0.00 0.00 50 1016.2
20260509100501 18 31 6.4 6.4 0.00 0.00 0.00 50 1016.1
20260509100002 18 78 1.6 4.8 0.00 0.00 0.00 50 1016.3
20260509095459 18 78 1.6 4.8 0.00 0.00 0.00 50 1016.2
20260509095002 18 121 1.6 4.8 0.00 0.00 0.00 49 1016.2
20260509094002 17 120 3.2 4.8 0.00 0.00 0.00 57 1016.3
20260509093502 17 49 1.6 4.8 0.00 0.00 0.00 61 1016.3
20260509093002 17 69 1.6 8.0 0.00 0.00 0.00 66 1016.2
20260509092501 16 36 1.6 8.0 0.00 0.00 0.00 64 1016.2
20260509092002 16 103 3.2 8.0 0.00 0.00 0.00 63 1016.1
20260509091002 -17 0.0 0.0 0.00 0.00 0.00 1016.1
20260509090459 -17 0.0 0.0 0.00 0.00 0.00 1016.2
20260509090001 -17 0.0 0.0 0.00 0.00 0.00 1016.3
20260509085458 -17 0.0 0.0 0.00 0.00 0.00 1016.5
20260509084957 -17 0.0 0.0 0.00 0.00 0.00 1016.5
20260509084458 -17 0.0 0.0 0.00 0.00 0.00 1016.5
20260509083959 -17 0.0 0.0 0.00 0.00 0.00 1016.4
20260509083502 -17 0.0 0.0 0.00 0.00 0.00 1016.4
20260509082958 -17 0.0 0.0 0.00 0.00 0.00 1016.4
20260509082458 -17 0.0 0.0 0.00 0.00 0.00 1016.4
20260509082001 -17 0.0 0.0 0.00 0.00 0.00 1016.4
20260509080958 -17 0.0 0.0 0.00 0.00 0.00 1016.5
20260509080459 -17 0.0 0.0 0.00 0.00 0.00 1016.6
20260509080001 -17 0.0 0.0 0.00 0.00 0.00 1016.6
20260509075457 -17 0.0 0.0 0.00 0.00 0.00 1016.6
20260509074958 -17 0.0 0.0 0.00 0.00 0.00 1016.6
20260509074459 -17 0.0 0.0 0.00 0.00 0.00 1016.7
20260509072959 -17 0.0 0.0 0.00 0.00 0.00 1016.8
20260509072458 -17 0.0 0.0 0.00 0.00 0.00 1016.9
20260509071958 -17 0.0 0.0 0.00 0.00 0.00 1016.9
20260509071458 -17 0.0 0.0 0.00 0.00 0.00 1016.9
20260509070958 -17 0.0 0.0 0.00 0.00 0.00 1017.1
20260509070458 -17 0.0 0.0 0.00 0.00 0.00 1017.2
20260509070003 8 212 0.0 3.2 0.00 0.00 0.00 88 1017.3
20260509065459 8 212 0.0 3.2 0.00 0.00 0.00 88 1017.3
20260509065000 8 212 1.6 3.2 0.00 0.00 0.00 91 1017.3
20260509064500 8 212 3.2 3.2 0.00 0.00 0.00 91 1017.3
20260509064001 8 212 0.0 3.2 0.00 0.00 0.00 88 1017.4
20260509062500 7 212 0.0 3.2 0.00 0.00 0.00 91 1017.4
20260509060500 7 212 0.0 3.2 0.00 0.00 0.00 91 1017.4
20260509060001 7 212 0.0 3.2 0.00 0.00 0.00 91 1017.3
20260509055459 7 212 0.0 3.2 0.00 0.00 0.00 90 1017.8
20260509055007 7 212 0.0 3.2 0.00 0.00 0.00 90 1017.3
20260509054458 6 212 0.0 3.2 0.00 0.00 0.00 90 1017.4
20260509053000 6 212 1.6 3.2 0.00 0.00 0.00 90 1017.3
20260509052458 6 212 3.2 3.2 0.00 0.00 0.00 90 1017.3
20260509052000 6 105 0.0 3.2 0.00 0.00 0.00 90 1017.2